C/2001 C1 (LINEAR) 

Epoch 2002 Mar. 27.0 TT = JDT 2452360.5  

T 2002 Mar. 28.29768 TT                                 Nakano

q   5.1045993            (2000.0)            P               Q

z  +0.0000210      Peri.  219.93695     -0.50985760     +0.68683641

 +/-0.0000026      Node    33.71130     -0.32808493     +0.40136009

e   0.9998926      Incl.   68.95186     -0.79523928     -0.60594210

From 201 observations 2000 Apr. 29-2002 June 3, mean residual 0".72.

   (1/a)org.= +0.000009, (1/a)fut.= -0.000221 (+/-0.000003), Q= 8.

Residuals in seconds of arc 

2000/                     010222 349  0.2-  0.4+    010422 300  0.3+  0.5+  

000429 699  0.4-  0.1+    010222 349  0.7-  0.1-    010422 900  0.5+  0.1-  

000429 699  0.3-  0.1-    010225 046  0.4-  0.2-    010422 300  0.2+  0.1+  

000429 699  1.1-  0.8-    010225 046  0.3-  0.6-    010422 300  0.2-  1.5+  

000429 699  0.7-  0.5+    010225 046  0.3-  0.1-    010422 587  0.3-  0.4+  

000503 704  1.0-  0.9-    010225 046  0.4-  0.4-    010422 587  0.2+  0.7-  

000503 704  1.3-  0.2-    010225 046  0.6-  0.3-    010425 300  0.4-  1.0+  

000503 704  0.9-  0.8+    010226 360  0.3-  0.4-    010425 300  0.6+  0.8+  

000503 704  1.2-  0.1-    010226 360  0.3-  0.5-    010425 300  0.3+  1.4+  

000503 704  0.5-  0.9-    010318 704  0.4+  0.8+    010425 300  0.6-  0.7+  

000530 699  0.1-  0.6+    010318 704  0.3-  1.3+    010430 704  0.9+  0.3-  

000530 699  0.3+  0.6+    010318 704  0.1-  0.1+    010430 704  1.3+  1.0+  

000530 699  0.1+  0.9+    010318 704  0.4+  0.6-    010430 704  0.2+  0.3-  

000530 699  0.1-  0.2+    010318 704  0.4-  1.9-    010430 704  0.7+  0.1-  

000530 699  0.1-  0.3-    010321 402  0.1-  0.8+    010430 704  0.1-  1.2-  

000530 699  0.0   0.2-    010321 402  0.4-  0.0     010512 367  0.1-  0.7+  

000530 699  0.3-  0.1+    010321 360  0.5-  0.5-    010512 367  0.3+  0.9+  

000530 699  0.2+  0.1+    010321 402  0.3-  0.1-    010512 367  0.2+  0.7+  

2001/                     010321 360  0.5-  0.8-    010512 360  0.1-  1.0-  

010201 704 (1.0-  2.4+)   010321 867  0.4-  0.2-    010512 360  0.1-  0.4-  

010201 704  0.1+  0.4-    010321 867  0.1-  0.3-    010512 352  0.4+  0.4+  

010201 704 (0.4+  2.6-)   010324 704  0.6+  0.1+    010512 352  0.3-  0.5+  

010202 704  0.7+  0.4+    010324 704  0.3+  0.7-    010512 352  0.5-  0.1+  

010202 734  0.1+  0.4-    010324 704  0.5+  1.9-    010514 428  0.8-  0.4+  

010202 734  0.3+  0.0     010324 704 (0.1-  2.1+)   010518 699 (1.8+  3.2+) 

010202 704  1.4-  1.2-    010324 704  1.3-  0.9+    010518 699 (1.4+  2.5+) 

010202 734  0.5+  0.4+    010326 349  0.4-  0.5-    010518 699 (1.7+  4.2+) 

010202 704  0.6-  1.1-    010326 349  0.7+  0.3+    010518 699 (2.2+  3.3+) 

010203 850  0.2-  0.2+    010329 919  0.9-  1.0+    010519 608  0.6+  0.3-  

010203 850  0.0   0.1+    010329 919  0.1-  0.3-    010519 608  0.6+  0.6-  

010203 704  0.5-  1.1+    010329 919  1.0-  1.1-    010519 608  0.7+  0.3-  

010203 704  0.2+  0.1-    010329 919  0.2+  0.0     010519 402  0.7-  1.1-  

010203 704  0.2+  0.3-    010329 919  0.1+  1.1-    010519 402  0.2-  1.2-  

010203 704  0.6+  1.7-    010329 919  0.5-  0.9-    010521 704  1.3+  0.7+  

010203 670  0.6-  0.7-    010329 428  0.1-  0.3-    010521 704  1.6+  1.0+  

010203 670  1.5+  1.1-    010329 428  0.1-  0.2+    010521 704  0.8+  0.1-  

010204 912 (3.1-  2.7+)   010330 919  0.3+  1.6-    010521 704  0.6+  0.1-  

010204 912  0.6-  1.3+    010330 919  0.0   0.2+    010521 704  0.3-  0.7-  

010204 734  0.5+  0.1-    010330 919  1.1-  0.7-    010524 704  1.5+  0.7+  

010204 734  0.6+  0.4-    010331 360  0.2-  0.8-    010524 704 (2.1+  0.8-) 

010204 734  0.6+  0.5-    010331 360  0.3-  0.7-    010524 704  0.2+  1.0-  

010204 918  0.5+  0.4-    010401 704  0.6+  0.7+    010524 704  0.2+  0.7-  

010204 918  0.0   0.9-    010401 704  0.1-  1.6+    010527 704  0.6+  0.9+  

010204 734  0.5+  0.7-    010401 704  0.1-  1.3+    010527 704  0.5+  0.4-  

010204 918  0.9+  0.7-    010401 704  0.3+  1.6+    010527 704  1.9+  1.0+  

010204 918  0.8+  0.3-    010401 704  0.4-  0.7+    010527 704  0.0   0.7+  

010204 428  0.5-  0.7-    010404 402  0.1-  0.1-    010617 320  0.7-  1.0-  

010205 620  1.8+  1.6+    010404 402  0.1+  0.0     010617 320  0.9-  0.6-  

010205 620  0.3+  0.3-    010404 402  0.2-  0.3-    010617 320  1.1-  0.8-  

010205 620  0.5+  1.0-    010413 701 (0.8+  2.1+)   010617 320  0.5-  0.5-  

010205 620  1.5+  1.8+    010413 701  0.8-  1.5+    010618 320  0.1+  0.6-  

010205 620  0.9+  0.5+    010413 701  0.3+  1.6+    010618 320  1.2-  0.8-  

010205 620 (1.9+  4.2-)   010416 699 (0.6+  4.2+)   010618 320  0.7-  0.4-  

010205 704  1.0+  0.6+    010416 699 (0.2+  3.5+)   010618 320  0.1-  0.0   

010205 704  0.0   1.6+    010416 699  0.1+  0.7+    010623 860 (2.0-  2.0+) 

010205 704  1.0+  0.2+    010416 699  0.1+  1.3+    010623 860  0.2+  0.8+  

010205 704  0.0   0.1-    010417 704  0.8+  0.0     010624 860  0.6+  1.3-  

010205 704  1.2+  0.6-    010417 704  0.2+  1.1+    010728 844  0.1-  1.1-  

010205 704  0.1-  1.5-    010417 704  0.4-  0.3+    010728 844  0.1-  0.4-  

010205 428  0.6-  0.6-    010417 704  0.8+  0.4-    010729 844 (0.9+  2.5-) 

010216 349  1.3-  0.9-    010417 704  1.5-  0.3-    2002/                   

010216 349  0.1-  0.0     010418 704  1.0+  0.7+    020211 322  0.8-  0.5-  

010216 349  0.6-  1.3-    010418 704  0.7+  1.7+    020211 322 (0.0   3.9+) 

010219 372  0.8+  0.4+    010418 704  0.1+  0.5+    020211 322 (2.4-  0.6-) 

010219 360  0.4-  0.9-    010418 704  0.0   0.5+    020216 474  0.5-  0.5-  

010219 360  0.2-  0.3-    010418 704  0.5-  0.4+    020216 474  0.7-  0.5+  

010219 372  0.0   0.3+    010422 342  1.6-  1.3-    020216 474  0.7-  0.4-  

010221 428  0.2-  0.2+    010422 349  1.2+  0.6+    020416 474  0.3-  0.2-  

010221 428  0.3-  0.6+    010422 342  0.4-  1.0-    020505 474  1.4-  0.7-  

010221 428  0.1+  0.2-    010422 349  1.9+  1.1+    020505 474  0.9-  0.4-  

010222 428  0.9-  0.1-    010422 349  0.8+  1.3+    020603 474  0.6-  0.5+  

010222 428  0.3-  0.6+    010422 900  0.3+  0.2-    020603 474  0.5-  0.1+  

010222 428  0.7-  0.3+    010422 300  0.4+  1.0+    020603 474  1.0+  0.5+  

010222 349  0.0   0.7+    010422 300  0.5+  1.2+    020603 474 (5.3-  0.2-) 



NAKANO

         **** Don't distribute anyone except personal use only ****

                (C) Copyright 2002 OAA/ComputingSection

write mail from CFAD0::NAKANO on 2002-06-24 23:03:41(JST).

 





    C/2001 C1 (LINEAR) 

Epoch 2002 Mar. 27.0 TT = JDT 2452360.5  

T 2002 Mar. 28.29902 TT                                 Nakano

q   5.1046546            (2000.0)            P               Q

z  +0.0000295      Peri.  219.93622     -0.50986346     +0.68683293

 +/-0.0000039      Node    33.71133     -0.32809465     +0.40135105

e   0.9998495      Incl.   68.95141     -0.79523151     -0.60595203

From 173 observations 2000 Apr. 29-2001 June 24, mean residual 0".71.



NAKANO

         **** Don't distribute anyone except personal use only ****

                (C) Copyright 2001 OAA/ComputingSection

write mail from CFAD0::NAKANO on 2001-07-31 23:54:42(JST).



    C/2001 C1 (LINEAR) 

Epoch 2002 Mar. 27.0 TT = JDT 2452360.5  

T 2002 Mar. 28.30371 TT                                 Nakano

q   5.1046955            (2000.0)            P               Q

z  +0.0000422      Peri.  219.93577     -0.50986891     +0.68682887

 +/-0.0000053      Node    33.71133     -0.32809755     +0.40134870

e   0.9997845      Incl.   68.95143     -0.79522682     -0.60595819

From 132 observations 2000 Apr. 29-2001 Apr. 30, mean residual 0".69.



NAKANO

         **** Don't distribute anyone except personal use only ****

                (C) Copyright 2001 OAA/ComputingSection

write mail from CFAD0::NAKANO on 2001-05-16 16:29:52(JST).

 





◎C/2001 C1 = 2000 HR81 



 2000年4月に発見されていた2000 HR81と同定ができました.



    C/2001 C1 (LINEAR) = 2000 HR81 

Epoch 2002 Mar. 27.0 TT = JDT 2452360.5  

T 2002 Mar. 28.31929 TT                                 Nakano

q   5.1044495            (2000.0)            P               Q

z  +0.0000395      Peri.  219.93987     -0.50982330     +0.68686364

 +/-0.0000080      Node    33.71116     -0.32806463     +0.40137374

e   0.9997982      Incl.   68.95172     -0.79526964     -0.60590219

From 100 observations 2000 Apr. 29-2001 Apr. 13, mean residual 0".66.

 

Date/        TT  R.A.(2000) Decl.     Delta   r     Daily motion  Mag.  Moon Age

              h    h  m       。  ,                      ,  / PA 。  m1      。

2001 Apr. 20 14  14 08.73  -15 03.4   4.716  5.718    11.9 / 256  16.4  139  .10

          21 14  14 07.93  -15 06.3   4.711  5.714    11.9 / 256  16.4  151  .05

          22 14  14 07.13  -15 09.1   4.707  5.711    11.9 / 256  16.4  163  .01

          23 14  14 06.33  -15 11.9   4.703  5.708    12.0 / 256  16.4  173  .00

          24 14  14 05.53  -15 14.8   4.699  5.704    12.0 / 256  16.4  167  .01

          25 14  14 04.72  -15 17.6   4.696  5.701    12.0 / 256  16.4  154  .04

          26 14  14 03.92  -15 20.4   4.693  5.698    12.0 / 257  16.4  141  .10

          27 14  14 03.11  -15 23.2   4.690  5.695    12.0 / 257  16.4  127  .17

          28 14  14 02.31  -15 25.9   4.688  5.691    12.0 / 257  16.4  113  .27

          29 14  14 01.50  -15 28.7   4.686  5.688    12.0 / 257  16.4   99  .37

          30 14  14 00.70  -15 31.4   4.684  5.685    11.9 / 257  16.4   85  .48

     May   1 14  13 59.89  -15 34.2   4.683  5.681    11.9 / 257  16.4   71  .60

           2 14  13 59.09  -15 36.9   4.682  5.678    11.9 / 257  16.4   57  .71

           3 14  13 58.29  -15 39.6   4.681  5.675    11.8 / 257  16.4   43  .81

           4 14  13 57.49  -15 42.3   4.681  5.672    11.8 / 257  16.4   29  .89

           5 14  13 56.70  -15 45.0   4.681  5.668    11.8 / 257  16.4   16  .95

           6 14  13 55.90  -15 47.7   4.681  5.665    11.7 / 257  16.4    8  .99

